Location: Fond Mahaut
(18.0707°N, 63.0465°W)
Time: 08:49:30
(UTC+00:00)

USA 267 - Pass Details

Date: 08 December 2019
Orbit: 1100 x 1107 km, 123.0° (Epoch: 20 January)

Event Time Altitude Azimuth Distance (km) Brightness Sun altitude
Rises 22:45:27 0° 137° (SE) 3,905 5.9 -16.1°
Reaches altitude 10° 22:47:55 10° 135° (SE) 2,948 5.3 -16.6°
Maximum altitude 22:54:24 74° 51° (NE) 1,139 3.1 -18.1°
Drops below altitude 10° 23:00:54 10° 327° (NNW) 2,951 5.7 -19.6°
Sets 23:03:23 0° 326° (NW) 3,909 6.4 -20.1°
